Torna al catalogo

ARIANE 1 DEB

AttivoPO
NORAD 17429·DEBRIS·🇫🇷 France

Lanciato Feb 22, 1986 da Guiana Space Centre

Loading…

Prossimi Passaggi (prossime 24 ore)

TLE

AggiornatoSource: Space-Track

Epoca: Sep 13, 2026, 18:17 UTC

1 17429U 86019FQ  26256.76219973  .00010523  00000-0  11717-2 0  9992
2 17429  99.0437 184.7104 0034517  11.2674 348.9303 14.86897257 85216

Traccia ARIANE 1 DEB in tempo reale con AllMySat

Download on the App Store